TimeCET,TemperatureF,Dew PointF,Humidity,Sea Level PressureIn,VisibilityMPH,Wind Direction,Wind SpeedMPH,Gust SpeedMPH,PrecipitationIn,Events,Conditions,WindDirDegrees,DateUTC
12:20 AM,42.8,41.0,93,30.27,-9999.0,North,-9999.0,-,N/A,,Mist,0,2013-01-04 23:20:00
12:50 AM,42.8,41.0,93,30.27,2.5,NW,1.2,-,N/A,,Mist,320,2013-01-04 23:50:00
1:20 AM,42.8,41.0,93,30.24,2.5,West,4.6,-,N/A,,Mist,270,2013-01-05 00:20:00
1:50 AM,44.6,44.6,100,30.24,2.5,Variable,1.2,-,N/A,,Mist,0,2013-01-05 00:50:00
2:20 AM,42.8,41.0,93,30.24,2.5,Variable,1.2,-,N/A,,Mist,0,2013-01-05 01:20:00
2:50 AM,42.8,41.0,93,30.24,1.9,North,3.5,-,N/A,,Mist,10,2013-01-05 01:50:00
3:20 AM,41.0,39.2,93,30.24,1.9,North,3.5,-,N/A,,Mist,350,2013-01-05 02:20:00
3:50 AM,41.0,41.0,100,30.21,1.9,WNW,3.5,-,N/A,,Mist,290,2013-01-05 02:50:00
4:20 AM,42.8,41.0,93,30.21,1.9,WNW,3.5,-,N/A,,Mist,290,2013-01-05 03:20:00
4:50 AM,41.0,39.2,93,30.21,1.9,NW,2.3,-,N/A,,Mist,320,2013-01-05 03:50:00
5:20 AM,41.0,39.2,93,30.18,2.5,Variable,1.2,-,N/A,,Mist,0,2013-01-05 04:20:00
5:50 AM,41.0,39.2,93,30.18,3.1,NNE,3.5,-,N/A,,Mist,20,2013-01-05 04:50:00
6:20 AM,39.2,37.4,93,30.18,2.5,NW,2.3,-,N/A,,Mist,310,2013-01-05 05:20:00
6:50 AM,42.8,41.0,93,30.18,2.5,Variable,2.3,-,N/A,,Mist,0,2013-01-05 05:50:00
7:20 AM,42.8,41.0,93,30.18,3.7,Variable,1.2,-,N/A,,Unknown,0,2013-01-05 06:20:00
7:50 AM,41.0,41.0,100,30.18,5.0,NE,3.5,-,N/A,,Unknown,50,2013-01-05 06:50:00
8:20 AM,39.2,37.4,93,30.18,5.0,Variable,1.2,-,N/A,,Unknown,0,2013-01-05 07:20:00
8:50 AM,42.8,41.0,93,30.15,5.0,Variable,2.3,-,N/A,,Unknown,0,2013-01-05 07:50:00
9:20 AM,44.6,42.8,93,30.15,5.0,NNE,3.5,-,N/A,,Unknown,20,2013-01-05 08:20:00
9:50 AM,46.4,42.8,87,30.18,3.1,NE,4.6,-,N/A,,Mist,40,2013-01-05 08:50:00
10:20 AM,48.2,42.8,82,30.18,3.1,NE,3.5,-,N/A,,Mist,40,2013-01-05 09:20:00
10:50 AM,50.0,44.6,82,30.18,3.1,Variable,1.2,-,N/A,,Mist,0,2013-01-05 09:50:00
11:20 AM,53.6,48.2,82,30.15,3.7,Variable,1.2,-,N/A,,Unknown,0,2013-01-05 10:20:00
11:50 AM,55.4,48.2,77,30.15,5.0,South,4.6,-,N/A,,Unknown,170,2013-01-05 10:50:00
12:20 PM,55.4,48.2,77,30.12,5.0,South,4.6,-,N/A,,Unknown,190,2013-01-05 11:20:00
12:50 PM,55.4,48.2,77,30.12,5.0,South,6.9,-,N/A,,Unknown,190,2013-01-05 11:50:00
1:20 PM,55.4,46.4,72,30.09,5.0,South,4.6,-,N/A,,Unknown,190,2013-01-05 12:20:00
1:50 PM,55.4,46.4,72,30.09,5.0,South,4.6,-,N/A,,Unknown,170,2013-01-05 12:50:00
2:20 PM,55.4,46.4,72,30.09,5.0,SSE,3.5,-,N/A,,Unknown,150,2013-01-05 13:20:00
2:50 PM,57.2,46.4,67,30.09,-9999.0,South,3.5,-,N/A,,Clear,170,2013-01-05 13:50:00
3:20 PM,55.4,46.4,72,30.09,3.1,Variable,2.3,-,N/A,,Partly Cloudy,0,2013-01-05 14:20:00
3:50 PM,55.4,46.4,72,30.09,2.5,Variable,1.2,-,N/A,,Mist,0,2013-01-05 14:50:00
4:20 PM,53.6,46.4,77,30.09,2.5,Variable,1.2,-,N/A,,Mist,0,2013-01-05 15:20:00
4:50 PM,53.6,46.4,77,30.09,2.5,Variable,2.3,-,N/A,,Mist,0,2013-01-05 15:50:00
5:20 PM,51.8,46.4,82,30.09,2.5,Variable,2.3,-,N/A,,Mist,0,2013-01-05 16:20:00
5:50 PM,50.0,44.6,82,30.09,2.5,North,3.5,-,N/A,,Mist,360,2013-01-05 16:50:00
6:20 PM,50.0,46.4,87,30.09,2.5,North,4.6,-,N/A,,Mist,360,2013-01-05 17:20:00
6:50 PM,50.0,46.4,87,30.09,1.9,North,3.5,-,N/A,,Mist,350,2013-01-05 17:50:00
7:20 PM,48.2,44.6,87,30.09,1.9,North,2.3,-,N/A,,Mist,10,2013-01-05 18:20:00
7:50 PM,48.2,44.6,87,30.09,1.9,Variable,2.3,-,N/A,,Mist,0,2013-01-05 18:50:00
8:50 PM,46.4,44.6,93,30.09,1.9,North,3.5,-,N/A,,Mist,360,2013-01-05 19:50:00
9:20 PM,42.8,41.0,93,30.12,1.9,NNW,3.5,-,N/A,,Mist,330,2013-01-05 20:20:00
9:50 PM,44.6,42.8,93,30.12,1.9,NNW,4.6,-,N/A,,Mist,330,2013-01-05 20:50:00
10:20 PM,44.6,42.8,93,30.12,1.9,NW,3.5,-,N/A,,Mist,310,2013-01-05 21:20:00
10:50 PM,44.6,42.8,93,30.12,2.5,NW,3.5,-,N/A,,Mist,320,2013-01-05 21:50:00
11:20 PM,46.4,44.6,93,30.12,2.5,North,3.5,-,N/A,,Mist,360,2013-01-05 22:20:00
11:50 PM,42.8,41.0,93,30.12,3.7,NW,4.6,-,N/A,,Unknown,320,2013-01-05 22:50:00